Tracking 18942 objects as of 17-Jan-2018
HD Live streaming from Space Station
objects crossing your sky now

COSMOS 2334

Track COSMOS 2334 now!
10-day predictions
COSMOS 2334 is classified as:


NORAD ID: 24304
Int'l Code: 1996-052A
Perigee: 971.9 km
Apogee: 1,016.1 km
Inclination: 82.9 °
Period: 104.8 minutes
Semi major axis: 7364 km
RCS: 2.1605 m2 (large)
Launch date: September 5, 1996
Source: Commonwealth of Independent States (former USSR) (CIS)
Launch site: PLESETSK MISSILE AND SPACE COMPLEX (PKMTR)
aabbcc
Your satellite tracking list
Your tracking list is empty




NASA's NSSDC Master Catalog

Two Line Element Set (TLE):
1 24304U 96052A   18017.49292625  .00000018  00000-0  32047-5 0  9991
2 24304  82.9331 194.3421 0030022 170.2065 217.6884 13.73549270 71031
Source of the keplerian elements: AFSPC